Weather History for KSYR - June, 2014

Change the Weather History Date:

Tuesday, June 24, 2014

  Actual Average Record
Temperature  
Mean Temperature 78 °F 69 °F  
Max Temperature 87 °F 80 °F 93 °F (1949)
Min Temperature 69 °F 59 °F 45 °F (1988)
Degree Days  
Heating Degree Days 0 1  
Month to date heating degree days 23 55  
Since 1 June heating degree days 23 55  
Since 1 July heating degree days 7079 6645  
Cooling Degree Days 13 5  
Month to date cooling degree days 92 80  
Year to date cooling degree days 148 110  
Since 1 June cooling degree days 92 80  
Growing Degree Days 29 (Base 50)    
Moisture  
Dew Point 65 °F    
Average Humidity 71    
Maximum Humidity 90    
Minimum Humidity 51    
Precipitation  
Precipitation 0.66 in 0.11 in 0.97 in (1992)
Month to date precipitation 1.94 2.63  
Year to date precipitation 19.32 16.56  
Snow  
Snow 0.00 in 0.00 in T in (1992)
Month to date snowfall 0.0 0.0  
Since 1 June snowfall 0.0 0.0  
Since 1 July snowfall 132.0 123.8  
Snow Depth 0.00 in    
Sea Level Pressure  
Sea Level Pressure 29.92 in    
Wind  
Wind Speed 9 mph (South)    
Max Wind Speed 21 mph    
Max Gust Speed 25 mph    
Visibility 9 miles    
Events Rain , Thunderstorm    
T = Trace of Precipitation, MM = Missing Value Source: NWS Daily Summary

Daily Weather History Graph

Daily Weather History Graph

Search for Another Location

Airport or City:

Trip Planner

Search our weather history database for the weather conditions in past years. The results will help you decide how hot, cold, wet, or windy it might be!

Date:

Astronomy

Jun. 24, 2014 Rise Set
Actual Time 5:25 AM EDT 8:47 PM EDT
Civil Twilight 4:50 AM EDT 9:23 PM EDT
Nautical Twilight 4:04 AM EDT 10:09 PM EDT
Astronomical Twilight 3:06 AM EDT 11:06 PM EDT
Moon 3:34 AM EDT (6/24) 6:21 PM EDT (6/24)
Length of Visible Light 16h 33m
Length of Day
15h 22m
Waning Crescent, 7% of the Moon is Illuminated
Jun 24
Waning Crescent
Jun 27
New
Jul 5
First Quarter
Jul 12
Full
Jul 18
Last Quarter

Hourly Weather History & Observations

Time (EDT) Temp. Heat Index Dew Point Humidity Pressure Visibility Wind Dir Wind Speed Gust Speed Precip Events Conditions
12:54 AM 75.9 °F - 59.0 °F 56% 29.98 in 10.0 mi South 10.4 mph 21.9 mph N/A   Overcast
1:54 AM 75.0 °F - 60.1 °F 60% 29.97 in 10.0 mi South 9.2 mph - N/A   Overcast
2:54 AM 75.0 °F - 59.0 °F 57% 29.96 in 10.0 mi South 13.8 mph 21.9 mph N/A   Overcast
3:54 AM 73.9 °F - 59.0 °F 59% 29.96 in 10.0 mi South 8.1 mph 20.7 mph 0.00 in   Overcast
4:54 AM 73.9 °F - 59.0 °F 59% 29.95 in 10.0 mi SSW 9.2 mph - N/A   Overcast
5:54 AM 72.0 °F - 61.0 °F 68% 29.97 in 10.0 mi SSE 5.8 mph - 0.00 in Rain Light Rain
6:54 AM 73.0 °F - 61.0 °F 66% 29.97 in 10.0 mi South 6.9 mph - 0.00 in   Overcast
7:54 AM 75.0 °F - 61.0 °F 62% 29.97 in 10.0 mi South 9.2 mph - N/A   Mostly Cloudy
8:54 AM 71.1 °F - 63.0 °F 75% 29.98 in 6.0 mi South 9.2 mph - 0.03 in Rain Light Rain
9:54 AM 71.1 °F - 64.9 °F 81% 29.98 in 10.0 mi SSE 6.9 mph - 0.01 in   Mostly Cloudy
10:54 AM 73.9 °F - 64.0 °F 71% 29.97 in 10.0 mi South 13.8 mph - N/A   Mostly Cloudy
11:54 AM 73.9 °F - 63.0 °F 68% 29.98 in 10.0 mi South 10.4 mph - N/A   Overcast
12:54 PM 75.9 °F - 64.0 °F 67% 29.96 in 10.0 mi SSE 13.8 mph - N/A   Overcast
1:54 PM 81.0 °F 82.7 °F 64.9 °F 58% 29.94 in 10.0 mi South 11.5 mph - N/A   Mostly Cloudy
2:54 PM 82.9 °F 85.0 °F 66.0 °F 56% 29.91 in 10.0 mi South 12.7 mph 20.7 mph N/A   Mostly Cloudy
3:54 PM 84.9 °F 87.1 °F 66.0 °F 53% 29.89 in 10.0 mi South 12.7 mph - N/A   Scattered Clouds
4:54 PM 86.0 °F 88.2 °F 66.0 °F 51% 29.86 in 10.0 mi SSW 13.8 mph 20.7 mph N/A   Scattered Clouds
5:54 PM 84.9 °F 88.2 °F 68.0 °F 57% 29.84 in 10.0 mi South 10.4 mph 18.4 mph N/A   Scattered Clouds
6:25 PM 82.4 °F 84.6 °F 66.2 °F 58% 29.87 in 10.0 mi South 13.8 mph 19.6 mph 0.00 in Rain , Thunderstorm Light Thunderstorms and Rain
6:54 PM 79.0 °F - 70.0 °F 74% 29.86 in 8.0 mi South 4.6 mph - 0.02 in Rain Light Rain
7:54 PM 79.0 °F - 70.0 °F 74% 29.86 in 10.0 mi SSW 6.9 mph - N/A   Overcast
8:14 PM 75.2 °F - 69.8 °F 83% 29.90 in 6.0 mi WNW 16.1 mph 23.0 mph 0.01 in Rain , Thunderstorm Light Thunderstorms and Rain
8:34 PM 73.4 °F - 71.6 °F 94% 29.90 in 2.5 mi SSW 8.1 mph - 0.19 in Rain , Thunderstorm Thunderstorms and Rain
8:44 PM 73.4 °F - 69.8 °F 88% 29.90 in 7.0 mi SW 5.8 mph - 0.27 in Rain Rain
8:54 PM 73.0 °F - 69.1 °F 87% 29.89 in 6.0 mi SW 5.8 mph - 0.28 in Rain Light Rain
9:09 PM 73.4 °F - 69.8 °F 88% 29.91 in 2.5 mi SSW 10.4 mph 17.3 mph 0.08 in Rain Rain
9:15 PM 73.4 °F - 71.6 °F 94% 29.91 in 3.0 mi SW 8.1 mph - 0.13 in Rain Rain
9:54 PM 73.0 °F - 71.1 °F 93% 29.88 in 10.0 mi South 4.6 mph - N/A   Overcast
10:54 PM 73.0 °F - 69.1 °F 87% 29.88 in 10.0 mi South 5.8 mph - N/A   Overcast
11:54 PM 72.0 °F - 68.0 °F 87% 29.88 in 10.0 mi WNW 13.8 mph - N/A   Mostly Cloudy